DW6561 Weather Reports


time (UTC)temp
C
wind
direction
speed
KPH
gust
KPH
rain 1hr
cm
rain 24hr
cm
rain mn
cm
humidity
%
barometer
mb
20260506033010 23 134 1.6 9.7 0.00 0.00 0.00 42 1010.6
20260506031522 24 136 3.2 9.7 0.00 0.00 0.00 41 1010.3
20260506024509 25 116 1.6 4.8 0.00 0.00 0.00 37 1010.1
20260506023007 26 167 1.6 6.4 0.00 0.00 0.00 35 1010.1
20260506021513 26 107 0.0 6.4 0.00 0.00 0.00 34 1010.1
20260506020023 27 112 1.6 6.4 0.00 0.00 0.00 34 1010.1
20260506014533 27 299 0.0 3.2 0.00 0.00 0.00 31 1010.0
20260506013017 27 303 0.0 3.2 0.00 0.00 0.00 28 1010.0
20260506011514 27 352 0.0 4.8 0.00 0.00 0.00 29 1010.1
20260506004534 28 219 0.0 3.2 0.00 0.00 0.00 30 1010.2
20260506003028 28 296 0.0 3.2 0.00 0.00 0.00 28 1010.3
20260506001513 29 294 0.0 3.2 0.00 0.00 0.00 27 1010.4
20260506000020 29 327 0.0 3.2 0.00 0.00 0.00 27 1010.5
20260505234520 30 109 0.0 4.8 0.00 0.00 0.00 28 1010.6
20260505233009 30 271 0.0 4.8 0.00 0.00 0.00 29 1010.8
20260505231508 30 304 0.0 4.8 0.00 0.00 0.00 29 1011.0
20260505224506 29 334 0.0 4.8 0.00 0.00 0.00 30 1011.2
20260505223007 29 329 0.0 3.2 0.00 0.00 0.00 31 1011.3
20260505221516 28 78 0.0 6.4 0.00 0.00 0.00 31 1011.4
20260505220027 28 186 0.0 3.2 0.00 0.00 0.00 33 1011.6
20260505214519 28 305 0.0 6.4 0.00 0.00 0.00 32 1011.6
20260505211506 27 298 1.6 4.8 0.00 0.00 0.00 34 1011.8
20260505210012 27 258 0.0 6.4 0.00 0.00 0.00 35 1011.9
20260505204520 27 296 0.0 4.8 0.00 0.00 0.00 37 1012.1
20260505203022 27 310 0.0 4.8 0.00 0.00 0.00 36 1012.1
20260505201541 27 319 0.0 6.4 0.00 0.00 0.00 37 1012.2
20260505200010 26 327 0.0 4.8 0.00 0.00 0.00 36 1012.2
20260505194516 26 276 0.0 3.2 0.00 0.00 0.00 41 1012.4
20260505193032 25 331 0.0 4.8 0.00 0.00 0.00 39 1012.4
20260505190031 25 319 0.0 4.8 0.00 0.00 0.00 41 1012.5
20260505184510 25 331 1.6 9.7 0.00 0.00 0.00 41 1012.5
20260505183031 24 295 0.0 6.4 0.00 0.00 0.00 42 1012.6
20260505181521 23 315 0.0 4.8 0.00 0.00 0.00 41 1012.6
20260505180030 23 331 1.6 8.0 0.00 0.00 0.00 42 1012.5
20260505174527 22 329 0.0 4.8 0.00 0.00 0.00 43 1012.5
20260505173003 22 322 0.0 9.7 0.00 0.00 0.00 45 1012.5
20260505171512 22 299 0.0 6.4 0.00 0.00 0.00 46 1012.4
20260505170011 21 324 0.0 3.2 0.00 0.00 0.00 46 1012.3
20260505163003 21 335 0.0 4.8 0.00 0.00 0.00 47 1012.1
20260505161503 20 336 0.0 4.8 0.00 0.00 0.00 53 1011.9
20260505151508 16 345 0.0 1.6 0.00 0.00 0.00 60 1011.5
20260505124505 13 219 0.0 0.0 0.00 0.00 0.00 70 1009.8
20260505123010 13 219 0.0 0.0 0.00 0.00 0.00 69 1009.6
20260505121512 14 219 0.0 0.0 0.00 0.00 0.00 67 1009.4
20260505120014 14 219 0.0 3.2 0.00 0.00 0.00 66 1009.3
20260505114507 15 219 0.0 0.0 0.00 0.00 0.00 65 1009.3
20260505113018 15 219 0.0 1.6 0.00 0.00 0.00 62 1009.1
20260505111516 16 232 0.0 0.0 0.00 0.00 0.00 60 1008.9
20260505101510 17 163 1.6 9.7 0.00 0.00 0.00 60 1007.9
20260505100016 17 175 3.2 9.7 0.00 0.00 0.00 59 1007.7
20260505094524 17 189 0.0 1.6 0.00 0.00 0.00 52 1007.7
20260505093022 17 213 0.0 0.0 0.00 0.00 0.00 51 1007.7
20260505091529 17 213 0.0 0.0 0.00 0.00 0.00 48 1007.8
20260505090026 17 213 0.0 0.0 0.00 0.00 0.00 48 1007.7
20260505081509 18 187 0.0 6.4 0.00 0.00 0.00 47 1007.6
20260505074503 18 214 0.0 1.6 0.00 0.00 0.00 44 1007.5
20260505073007 18 217 0.0 4.8 0.00 0.00 0.00 43 1007.2
20260505070003 20 120 0.0 3.2 0.00 0.00 0.00 42 1007.0
20260505064512 20 170 0.0 3.2 0.00 0.00 0.00 39 1006.8
20260505063005 20 160 0.0 1.6 0.00 0.00 0.00 37 1006.8
20260505061510 21 141 0.0 0.0 0.00 0.00 0.00 36 1006.9
20260505054503 22 141 0.0 0.0 0.00 0.00 0.00 32 1006.4
20260505053007 22 141 0.0 0.0 0.00 0.00 0.00 31 1006.2
20260505051504 22 141 0.0 1.6 0.00 0.00 0.00 31 1006.2
20260505041504 23 172 0.0 4.8 0.00 0.00 0.00 31 1006.1
20260505040005 23 193 0.0 4.8 0.00 0.00 0.00 31 1005.9
20260505034509 24 338 0.0 1.6 0.00 0.00 0.00 30 1005.7